Погода в Годобери

Россия / Республика Дагестан     42°37′43″N   46°07′00″E
темп.,
°C
ветер,
м/с
пор.,
м/с
влажн.,
%
обл.,
%
осадки,
мм/ч
давл.,
гПа
погр.,
м
13 мая, чт
чт1300:00+8ююв33490 0.0 101641
03:00+7ююв345118 0.0 101644
06:00+9ююв34555 0.0 101667
09:00+18ю26340 0.0 10141317
12:00+21юз14274 0.0 10132987
15:00+21зсз343326 0.0 10132106
18:00+16с226641 0.1 101556
21:00+13ю2261100 0.2 101719
14 мая, пт
пт1400:00+10ю33625 0.0 101836
03:00+9ю33581 0.0 101836
06:00+11ююв34566 0.0 101864
09:00+19ююв22320 0.0 1015796
12:00+22ююв132826 0.0 10142886
15:00+22ссз123691 0.0 10132340
18:00+18св116186 0.1 101440
21:00+12ююв44730 0.5 101759
15 мая, сб
сб1500:00+10ю33660 0.0 101746
03:00+9ю33720 0.0 101745
06:00+11ююв33690 0.0 101781
09:00+19юв11370 0.0 1014800
12:00+21ссв323751 0.0 10132523
15:00+19с335038 1.3 10141466
18:00+15з117517 2.6 101546
21:00+11ю2280100 3.6 101725
16 мая, вс
вс1600:00+10ююв338198 0.1 101635
03:00+9ююв33839 0.1 101538
06:00+10ююв34750 0.0 101495
09:00+17ююв33430 0.0 1011733
12:00+21юв23352 0.0 10091890
15:00+22юз13324 0.0 10072283
18:00+18ююз22490 0.0 100845
21:00+10ю44490 0.0 101149
17 мая, пн
пн1700:00+9ю444288 0.0 101157
03:00+9ююв444858 0.0 101055
06:00+11ююв34579 0.0 100982
09:00+20ю233623 0.0 1007781
12:00+23юз24241 0.0 10052840
15:00+22зюз35291 0.0 10062418
18:00+18сз225691 0.0 100750
21:00+11сз228267 0.1 101227